MCA123 OPLA-UBBG

Flight info

Callsign MCA123
Flight time N/A
Altitude 36000
Route OPLA/36R LAXEB2F LAXEB A466 JHANG M875 LEBIB A466 DI N644 VUVEN LEMOD A909 NINOP ABDAN BODBA TUGTA RODAR M11 ERLEV LUSAL EDATA EDATA1E UBBG/12
Aircraft A319/M-SDE3GILORW/C

Departure

Time 2026-04-22 11:55
Airport Allama Iqbal International Airport (OPLA)

Arrival

Time N/A
Airport Ganja International Airport (UBBG)
Time Latitude Longitude Altitude Speed Heading
2026-04-22 11:44 31.51917 74.40958 712 ft 0 kts 89°
2026-04-22 11:49 31.51917 74.40938 712 ft 4 kts 89°
2026-04-22 11:49 31.51917 74.40906 712 ft 3 kts 89°
2026-04-22 11:49 31.51916 74.40874 712 ft 3 kts 89°
2026-04-22 11:50 31.51916 74.40847 712 ft 1 kts 90°
2026-04-22 11:50 31.51916 74.40840 712 ft 0 kts 150°
2026-04-22 11:50 31.51917 74.40839 712 ft 0 kts 173°
2026-04-22 11:51 31.51913 74.40839 712 ft 3 kts 181°
2026-04-22 11:51 31.51855 74.40839 711 ft 10 kts 180°
2026-04-22 11:51 31.51773 74.40839 709 ft 13 kts 180°
2026-04-22 11:52 31.51710 74.40804 708 ft 9 kts 263°
2026-04-22 11:52 31.51710 74.40719 708 ft 11 kts 270°
2026-04-22 11:52 31.51676 74.40657 707 ft 9 kts 182°
2026-04-22 11:52 31.51602 74.40658 707 ft 11 kts 179°
2026-04-22 11:53 31.51524 74.40653 707 ft 8 kts 216°
2026-04-22 11:53 31.51520 74.40601 707 ft 7 kts 258°
2026-04-22 11:53 31.51518 74.40532 707 ft 9 kts 270°
2026-04-22 11:53 31.51521 74.40453 707 ft 8 kts 294°
2026-04-22 11:54 31.51573 74.40449 707 ft 9 kts 358°
2026-04-22 11:54 31.51794 74.40451 707 ft 61 kts
2026-04-22 11:54 31.52407 74.40462 714 ft 114 kts
2026-04-22 11:54 31.53359 74.40485 783 ft 149 kts 359°
2026-04-22 11:55 31.54198 74.40511 1122 ft 150 kts 358°
2026-04-22 11:55 31.55219 74.40533 1619 ft 150 kts 358°
2026-04-22 11:55 31.56260 74.40552 2122 ft 150 kts 356°
2026-04-22 11:55 31.57227 74.40221 2599 ft 146 kts 316°
2026-04-22 11:56 31.57744 74.39271 3096 ft 141 kts 283°
2026-04-22 11:56 31.57731 74.38090 3416 ft 153 kts 252°
2026-04-22 11:56 31.57165 74.36983 3701 ft 169 kts 235°
2026-04-22 11:56 31.56394 74.35842 3995 ft 188 kts 233°
2026-04-22 11:57 31.55535 74.34594 4347 ft 205 kts 233°
2026-04-22 11:57 31.54606 74.33225 4723 ft 223 kts 233°
2026-04-22 11:57 31.53620 74.31757 5103 ft 240 kts 233°
2026-04-22 11:57 31.52548 74.30154 5489 ft 258 kts 233°
2026-04-22 11:58 31.51411 74.28451 5863 ft 276 kts 233°
2026-04-22 11:58 31.50184 74.26611 6229 ft 295 kts 233°
2026-04-22 11:58 31.49001 74.24564 6552 ft 312 kts 247°
2026-04-22 11:58 31.48386 74.22066 6890 ft 327 kts 261°
2026-04-22 11:59 31.48012 74.19389 7204 ft 345 kts 262°
2026-04-22 11:59 31.47634 74.16540 7502 ft 362 kts 262°
2026-04-22 11:59 31.47209 74.13567 7913 ft 375 kts 261°
2026-04-22 11:59 31.46744 74.10521 8415 ft 384 kts 261°
2026-04-22 12:00 31.46257 74.07459 8911 ft 388 kts 261°
2026-04-22 12:00 31.45750 74.04333 9416 ft 391 kts 261°
2026-04-22 12:00 31.45235 74.01197 9918 ft 394 kts 260°
2026-04-22 12:00 31.44719 73.98064 10418 ft 397 kts 261°
2026-04-22 12:01 31.44193 73.94875 10922 ft 400 kts 261°
2026-04-22 12:01 31.43708 73.91647 11426 ft 403 kts 263°
2026-04-22 12:01 31.43352 73.88390 11929 ft 405 kts 264°
2026-04-22 12:01 31.43024 73.85113 12431 ft 408 kts 265°
2026-04-22 12:02 31.42700 73.81844 12928 ft 410 kts 265°
2026-04-22 12:02 31.42367 73.78483 13438 ft 412 kts 265°
2026-04-22 12:02 31.42038 73.75173 13937 ft 415 kts 265°
2026-04-22 12:02 31.41704 73.71822 14439 ft 417 kts 265°
2026-04-22 12:03 31.41364 73.68417 14948 ft 419 kts 265°
2026-04-22 12:03 31.41027 73.65057 15447 ft 421 kts 265°
2026-04-22 12:03 31.40682 73.61634 15954 ft 423 kts 265°
2026-04-22 12:03 31.40337 73.58215 16458 ft 425 kts 266°
2026-04-22 12:04 31.39991 73.54802 16958 ft 427 kts 266°
2026-04-22 12:04 31.39640 73.51356 17463 ft 429 kts 266°
2026-04-22 12:04 31.39289 73.47911 17964 ft 431 kts 266°
2026-04-22 12:04 31.38932 73.44412 18470 ft 432 kts 266°
2026-04-22 12:05 31.38576 73.40942 18971 ft 433 kts 266°
2026-04-22 12:05 31.38215 73.37421 19479 ft 434 kts 266°
2026-04-22 12:05 31.37855 73.33926 19981 ft 435 kts 265°
2026-04-22 12:05 31.37490 73.30389 20489 ft 436 kts 265°
2026-04-22 12:06 31.37126 73.26865 20994 ft 436 kts 266°
2026-04-22 12:06 31.36764 73.23377 21495 ft 437 kts 265°
2026-04-22 12:06 31.36395 73.19839 22001 ft 437 kts 266°
2026-04-22 12:06 31.36031 73.16347 22502 ft 436 kts 266°
2026-04-22 12:07 31.35665 73.12851 22934 ft 438 kts 266°
2026-04-22 12:07 31.35290 73.09265 23090 ft 445 kts 265°
2026-04-22 12:07 31.34914 73.05683 23333 ft 450 kts 265°
2026-04-22 12:07 31.34527 73.02019 23476 ft 456 kts 265°
2026-04-22 12:08 31.34133 72.98298 23627 ft 461 kts 265°
2026-04-22 12:08 31.33741 72.94606 23910 ft 463 kts 265°
2026-04-22 12:08 31.33341 72.90860 24345 ft 461 kts 265°
2026-04-22 12:08 31.32944 72.87164 24834 ft 458 kts 265°
2026-04-22 12:09 31.32550 72.83488 25307 ft 455 kts 265°
2026-04-22 12:09 31.32156 72.79829 25763 ft 452 kts 265°
2026-04-22 12:09 31.31770 72.76234 26214 ft 450 kts 265°
2026-04-22 12:09 31.31379 72.72617 26660 ft 447 kts 265°
2026-04-22 12:10 31.30989 72.69006 27101 ft 445 kts 265°
2026-04-22 12:10 31.30605 72.65471 27532 ft 442 kts 265°
2026-04-22 12:10 31.30217 72.61899 27957 ft 440 kts 265°
2026-04-22 12:10 31.29831 72.58358 28375 ft 438 kts 265°
2026-04-22 12:11 31.29452 72.54888 28792 ft 435 kts 265°
2026-04-22 12:11 31.29068 72.51390 29206 ft 433 kts 265°
2026-04-22 12:11 31.28686 72.47916 29601 ft 430 kts 265°
2026-04-22 12:11 31.28304 72.44453 29972 ft 428 kts 265°
2026-04-22 12:12 31.27945 72.41014 30331 ft 426 kts 267°
2026-04-22 12:12 31.27803 72.37573 30678 ft 422 kts 272°
2026-04-22 12:12 31.27924 72.34180 31012 ft 419 kts 276°
2026-04-22 12:12 31.28299 72.30804 31372 ft 417 kts 280°
2026-04-22 12:13 31.28915 72.27532 31706 ft 414 kts 285°
2026-04-22 12:13 31.29783 72.24305 32016 ft 413 kts 289°
2026-04-22 12:13 31.30861 72.21249 32302 ft 413 kts 293°
2026-04-22 12:13 31.32168 72.18239 32602 ft 412 kts 296°
2026-04-22 12:14 31.33509 72.15306 32900 ft 410 kts 296°
2026-04-22 12:14 31.34857 72.12386 33165 ft 409 kts 296°
2026-04-22 12:14 31.36209 72.09463 33418 ft 408 kts 296°
2026-04-22 12:14 31.37552 72.06566 33674 ft 407 kts 296°
2026-04-22 12:15 31.38902 72.03645 33918 ft 406 kts 296°
2026-04-22 12:15 31.40236 72.00760 34147 ft 405 kts 296°
2026-04-22 12:15 31.41564 71.97886 34367 ft 404 kts 296°
2026-04-22 12:15 31.42893 71.95007 34574 ft 403 kts 296°
2026-04-22 12:16 31.44213 71.92145 34769 ft 403 kts 296°
2026-04-22 12:16 31.45535 71.89278 34949 ft 402 kts 296°
2026-04-22 12:16 31.46865 71.86391 35129 ft 402 kts 296°
2026-04-22 12:16 31.48183 71.83527 35192 ft 404 kts 296°
2026-04-22 12:17 31.49519 71.80623 35438 ft 401 kts 296°
2026-04-22 12:17 31.50834 71.77764 35662 ft 399 kts 296°
2026-04-22 12:17 31.53462 71.72037 35713 ft 404 kts 296°
2026-04-22 12:18 31.56145 71.66182 35716 ft 410 kts 296°
2026-04-22 12:18 31.58829 71.60319 35715 ft 411 kts 296°
2026-04-22 12:19 31.61529 71.54418 35716 ft 411 kts 296°
2026-04-22 12:19 31.64207 71.48542 35715 ft 410 kts 296°
2026-04-22 12:20 31.66886 71.42656 35716 ft 410 kts 296°
2026-04-22 12:20 31.69572 71.36746 35715 ft 410 kts 296°
2026-04-22 12:21 31.72254 71.30817 35714 ft 410 kts 295°
2026-04-22 12:21 31.74923 71.24906 35686 ft 411 kts 295°
2026-04-22 12:22 31.77587 71.19008 35671 ft 410 kts 295°
2026-04-22 12:22 31.80266 71.13075 35664 ft 411 kts 295°
2026-04-22 12:23 31.82934 71.07156 35663 ft 411 kts 295°
2026-04-22 12:23 31.85582 71.01275 35662 ft 410 kts 295°
2026-04-22 12:24 31.88240 70.95357 35660 ft 410 kts 295°
2026-04-22 12:24 31.91131 70.89534 35661 ft 412 kts 300°
2026-04-22 12:25 31.94467 70.84059 35661 ft 414 kts 304°
2026-04-22 12:25 31.98100 70.78806 35661 ft 415 kts 305°
2026-04-22 12:26 32.01748 70.73567 35661 ft 415 kts 306°
2026-04-22 12:26 32.05395 70.68330 35668 ft 415 kts 306°
2026-04-22 12:27 32.09021 70.63115 35682 ft 414 kts 306°
2026-04-22 12:27 32.12702 70.57841 35698 ft 415 kts 306°